Regional Weather Roundup
Issued by NWS

Home | Current Version | Previous Version | Text Only | Print | Product List | Glossary Off
Versions: 1 2 3 4 5 6 7 8 9 10 11 12 13 14 15 16 17 18 19 20 21 22 23 24 25 26 27 28 29 30 31 32 33 34 35 36 37 38 39 40 41 42 43 44 45 46 47 48 49 50

807
ASUS45 KTFX 270710
RWRMT
MONTANA REGIONAL WEATHER ROUNDUP
NATIONAL WEATHER SERVICE GREAT FALLS MT
100 AM MDT FRI APR 27 2018

NOTE: "FAIR" INDICATES FEW OR NO CLOUDS BELOW 12000 FEET WITH NO
SIGNIFICANT WEATHER AND/OR OBSTRUCTIONS TO VISIBILITY.

MTZ001>007-043-270800-
WEST OF THE DIVIDE

CITY           SKY/WX    TMP DP  RH WIND       PRES   REMARKS
KALISPELL      FAIR      42  34  73 NW5       30.05S
MISSOULA       FAIR      48  33  56 CALM      30.06R
BUTTE          FAIR      40  29  64 SE6       30.16R
MULLAN PASS    FAIR      52  31  44 SE7       30.12F
ANACONDA         N/A     43  30  61 SW6       30.13F
DEER LODGE       N/A     39  32  75 W3        30.15R
HAMILTON         N/A     48  34  57 MISG      30.07S
$$

MTZ008-052>055-270800-
SOUTHWEST MONTANA

CITY           SKY/WX    TMP DP  RH WIND       PRES   REMARKS
BOZEMAN        FAIR      37  28  70 SE8       30.12S WCI  31
DILLON         FAIR      41  32  70 S3        30.13R
ENNIS          CLEAR     39  27  60 N7        30.18S
W YELLOWSTONE  FAIR      27  21  80 CALM      30.21F
THREE FORKS      N/A     38  34  85 CALM      30.10S
$$

MTZ009-010-012-014-046-048-049-054-270800-
EAST SLOPES AND CENTRAL MONTANA

CITY           SKY/WX    TMP DP  RH WIND       PRES   REMARKS
CUT BANK       FAIR      48  26  42 W5        30.09S
GREAT FALLS    FAIR      43  30  60 SW7       30.07S
MALMSTROM AFB  FAIR      44  31  59 E3        30.07S
HELENA         FAIR      49  35  58 SW5       30.09S
AUGUSTA        FAIR      44  29  54 NE7       30.09S
BOWMANS CRNR   FAIR      50  23  34 W6        30.08R
CHOTEAU          N/A     43  30  61 NW7       30.11R
FAIRFIELD      FAIR      45  27  49 CALM      30.08R
POWER          FAIR      50  26  38 E9        30.07S
RAYNESFORD     FAIR      47  29  49 SE6       30.09F
ULM            FAIR      45  31  56 SE5       30.07S
WHITE SULPHUR    N/A     37  30  75 W3        30.13S
$$

MTZ011-013-016-021-045-047-050-051-270800-
NORTH CENTRAL MONTANA

CITY           SKY/WX    TMP DP  RH WIND       PRES   REMARKS
HAVRE          FAIR      45  33  63 CALM      30.07R
LEWISTOWN      FAIR      41  29  62 CALM      30.11S
N BAR RANCH    FAIR      41  27  56 W10       30.15S
CHINOOK          N/A     45  39  81 CALM      30.07R
GEYSER         FAIR      48  28  45 W3        30.10S
GRASS RANGE    FAIR      45  30  54 W5        30.07S
STANFORD       FAIR      47  29  48 SW6       30.11S
$$

MTZ017>020-022>027-061-062-270800-
NORTHEAST MONTANA

CITY           SKY/WX    TMP DP  RH WIND       PRES   REMARKS
GLASGOW        FAIR      47  32  56 N9        30.04R
GLENDIVE       FAIR      52  31  44 NW13      30.02S
JORDAN           N/A     42  35  76 W6        30.05R
MALTA          CLEAR     50  37  62 N3        30.04S
SIDNEY         FAIR      53  32  44 N14       30.02R
WOLF POINT     FAIR      53  31  42 CALM      30.05R
PLENTYWOOD       N/A     46  28  49 CALM      30.04R
POPLAR           N/A     46  30  53 N5        30.05R
$$

MTZ028>42-056>058-270800-
SOUTHCENTRAL AND SOUTHEAST MONTANA

CITY           SKY/WX    TMP DP  RH WIND       PRES   REMARKS
BAKER          FAIR      45  35  68 W8        30.05S
BILLINGS       FAIR      56  27  32 SW16      30.09S
LIVINGSTON     FAIR      36  29  75 CALM      30.14S
MILES CITY     FAIR      48  37  65 SW5       30.05S
BIG TIMBER     CLEAR     46  28  49 W7        30.14S
FORSYTH          N/A     52  30  43 CALM      30.06F
HARLOWTON      FAIR      44  32  64 W14       30.12S
LAUREL           N/A     48  30  49 SW14      30.11R
$$

REGIONAL REPORTS...DAKOTAS

CITY           SKY/WX    TMP DP  RH WIND       PRES   REMARKS
WILLISTON      FAIR      48  31  51 N8        30.01R
MINOT          FAIR      49  30  48 W14       29.93R
DICKINSON      FAIR      46  31  55 W12       29.96S
BEACH          FAIR      48  28  46 W14       30.04S
CROSBY         FAIR      41  27  56 NW9       30.03R
TIOGA          FAIR      45  30  57 N8        30.01R
WATFORD CITY   FAIR      46  32  57 N5        30.00R
BISMARCK       FAIR      52  30  43 NW10      29.92R
GRAND FORKS    FAIR      41  35  79 W10       29.73S
FARGO          MOCLDY    50  32  50 SW12      29.77F
BUFFALO SD       N/A     45  32  60 W10       29.98F
RAPID CITY     FAIR      39  30  70 W6        30.09F
$$

REGIONAL REPORTS...WYOMING/IDAHO/WASHINGTON

CITY           SKY/WX    TMP DP  RH WIND       PRES   REMARKS
GILLETTE       FAIR      38  29  70 SW6       30.13S
SHERIDAN       FAIR      37  31  78 CALM      30.13S
BUFFALO WY     FAIR      48  29  47 W5        30.17S
CODY           FAIR      44  29  55 CALM      30.18S
YELLOWSTONE LA   N/A     25  19  78 CALM      30.30S
IDAHO FALLS    FAIR      40  29  64 N7        30.11S
SALMON         FAIR      45  30  55 SE3       30.09R
BOISE          FAIR      59  38  45 SE9       29.95S
SPOKANE        FAIR      59  36  42 NE3       29.96F
$$

REGIONAL REPORTS...ALBERTA

CITY           SKY/WX    TMP DP  RH WIND       PRES   REMARKS
CALGARY        CLEAR     45  32  61 N3        30.10S
CARDSTON         N/A     39  30  70 N2          N/A
EDMONTON       CLEAR     43  25  49 SE5       30.06S
FORT MCMURRAY  CLEAR     39  23  52 SE6       30.09S
HIGH LEVEL     PTCLDY    37  27  65 N2        29.98S
LETHBRIDGE     CLEAR     43  32  65 SW6       30.08R
LLOYDMINSTER   CLEAR     37  25  60 E9        30.12R WCI  31
MEDICINE HAT   CLEAR     46  34  61 VRB5      30.06S
MILK RIVER       N/A     41  36  81 NW5         N/A
PEACE RIVER    CLEAR     37  32  81 N3        30.01F
PINCHER CREEK  CLEAR     37  28  70 W9        30.10R WCI  31
$$

REGIONAL REPORTS...SASKATCHEWAN

CITY           SKY/WX    TMP DP  RH WIND       PRES   REMARKS
CYPRESS HILLS    N/A     48  21  34 E5          N/A
ESTEVAN        CLEAR     37  25  60 NW8       30.01R WCI  31
MOOSE JAW        N/A     34  21  60 NW6         N/A  WCI  29
PRINCE ALBERT  CLEAR     39  27  60 NE9       30.14R
REGINA         CLEAR     36  21  55 NW10      30.06R WCI  28
ROCKGLEN         N/A     45  27  49 N6          N/A
SASKATOON      PTCLDY    43  23  45 N10       30.12R
SWIFT CURRENT  CLEAR     43  27  52 E7        30.09R
VAL MARIE        N/A     37  28  70 NE6         N/A
$$




USA.gov is the U.S. government's official web portal to all federal, state and local government web resources and services.